San Jose, Costa Rica

11:55 AM CST on February 08, 2016 (GMT -0600)
Juan Santamaria International

Weather History for MROC - September, 2011

Change the Weather History Date:

Monday, September 5, 2011

  Actual Average Record
Temperature  
Mean Temperature 72 °F -  
Max Temperature 80 °F 79 °F - (-1)
Min Temperature 64 °F 63 °F - (-1)
Cooling Degree Days 7    
Growing Degree Days 22 (Base 50)    
Moisture  
Dew Point 69 °F    
Average Humidity 95    
Maximum Humidity 100    
Minimum Humidity 61    
Precipitation  
Precipitation 0.08 in 0.46 in - ()
Sea Level Pressure  
Sea Level Pressure 29.97 in    
Wind  
Wind Speed 3 mph ()    
Max Wind Speed 12 mph    
Max Gust Speed -    
Visibility 6.8 miles    
Events Fog , Rain , Thunderstorm    
Averages and records for this station are not official NWS values.
T = Trace of Precipitation, MM = Missing Value Source: Averaged Metar Reports

Daily Weather History Graph

Daily Weather History Graph

Search for Another Location

Airport or City:

Trip Planner

Search our weather history database for the weather conditions in past years. The results will help you decide how hot, cold, wet, or windy it might be!

Date:

Astronomy

Sep. 05, 2011 Rise Set
Actual Time 5:27 AM CST 5:43 PM CST
Civil Twilight 5:06 AM CST 6:04 PM CST
Nautical Twilight 4:41 AM CST 6:29 PM CST
Astronomical Twilight 4:16 AM CST 6:54 PM CST
Moon 12:38 PM CST (9/5) No Moon Set
Length of Visible Light 12h 58m
Length of Day
12h 16m
First Quarter, 61% of the Moon is Illuminated
Sep 5
First Quarter
Sep 12
Full
Sep 20
Last Quarter
Sep 27
New
Oct 3
First Quarter

Hourly Weather History & Observations

Time (CST) Temp. Heat Index Dew Point Humidity Pressure Visibility Wind Dir Wind Speed Gust Speed Precip Events Conditions
12:00 AM 68 °F - 68 °F 100% 29.83 in 12 mi Calm Calm - -  
12:00 AM 68.0 °F - 68.0 °F 100% 30.03 in - Calm Calm - N/A   Clear
1:00 AM 68.0 °F - 68.0 °F 100% 30.02 in - Calm Calm - N/A   Clear
2:00 AM 68.0 °F - 68.0 °F 100% 29.99 in - Calm Calm - N/A   Clear
3:00 AM 66 °F - 66 °F 100% 29.82 in 12 mi East 5.8 mph - -   Partly Cloudy
3:00 AM 66.2 °F - 66.2 °F 100% 29.99 in - Calm Calm - N/A   Clear
4:00 AM 64.4 °F - 64.4 °F 100% 29.99 in - Calm Calm - N/A   Clear
5:00 AM 64.4 °F - 64.4 °F 100% 30.00 in - Calm Calm - N/A   Clear
6:00 AM 64 °F - 64 °F 100% 29.85 in 12 mi ESE 5.8 mph - -   Mostly Cloudy
6:00 AM 64.4 °F - 64.4 °F 100% 30.00 in - ESE 5.8 mph - N/A   Clear
7:00 AM 68.0 °F - 66.2 °F 94% 30.01 in - Calm Calm - N/A   Clear
8:00 AM 71.6 °F - 68.0 °F 88% 30.04 in - WSW 3.5 mph - N/A   Clear
9:00 AM 73 °F - 72 °F 94% 29.90 in 12 mi West 6.9 mph - -   Partly Cloudy
9:00 AM 73.4 °F - 71.6 °F 94% 30.05 in 6.2 mi West 6.9 mph - N/A   Scattered Clouds
10:00 AM 73.4 °F - 71.6 °F 94% 30.05 in 6.2 mi SW 5.8 mph - N/A   Scattered Clouds
11:00 AM 78.8 °F - 69.8 °F 74% 30.03 in 6.2 mi West 5.8 mph - N/A   Scattered Clouds
12:00 PM 81 °F - 70 °F 61% 29.83 in 12 mi WSW 9.2 mph - -   Partly Cloudy
12:00 PM 80.6 °F 83.9 °F 69.8 °F 70% 30.01 in 6.2 mi WSW 9.2 mph - N/A   Scattered Clouds
1:00 PM 78.8 °F - 73.4 °F 83% 29.98 in 6.2 mi SW 11.5 mph - N/A   Scattered Clouds
2:00 PM 73.4 °F - 73.4 °F 100% 29.97 in 6.2 mi SW 4.6 mph - N/A Rain , Thunderstorm Thunderstorms and Rain
3:00 PM 75 °F - 72 °F 86% 29.80 in 5 mi SW 9.2 mph - -   Overcast
3:00 PM 75.2 °F - 71.6 °F 89% 29.96 in 5.0 mi SW 9.2 mph - N/A Rain Light Rain
4:00 PM 73.4 °F - 73.4 °F 100% 29.96 in 6.2 mi WSW 6.9 mph - N/A Thunderstorm Mostly Cloudy
5:00 PM 69.8 °F - 69.8 °F 100% 29.99 in 6.2 mi WSW 8.1 mph - N/A Rain , Thunderstorm Light Thunderstorms and Rain
5:20 PM 69.8 °F - 69.8 °F 100% 30.01 in 3.1 mi SW 4.6 mph - N/A Rain , Thunderstorm Light Thunderstorms and Rain
6:00 PM 70 °F - 70 °F 99% 29.89 in 1 mi Calm Calm - - Rain Rain
6:00 PM 69.8 °F - 69.8 °F 100% 30.01 in 2.8 mi Calm Calm - N/A Rain , Thunderstorm Rain
7:00 PM 68.0 °F - 68.0 °F 100% 30.03 in 5.0 mi Calm Calm - N/A Fog , Rain Light Rain
8:00 PM 68.0 °F - 68.0 °F 100% 30.03 in 6.2 mi Calm Calm - N/A Fog Patches of Fog
9:00 PM 68 °F - 68 °F 100% 29.86 in 12 mi Calm Calm - -   Partly Cloudy
9:00 PM 68.0 °F - 68.0 °F 100% 30.02 in - Calm Calm - N/A   Clear
10:00 PM 68.0 °F - 68.0 °F 100% 30.03 in - Calm Calm - N/A   Clear
11:00 PM 66.2 °F - 66.2 °F 100% 30.03 in 6.2 mi SSE 2.3 mph - N/A   Mostly Cloudy
11:10 PM 66.2 °F - 66.2 °F 100% 30.03 in 0.3 mi SSE 3.5 mph - N/A Fog Fog